Weather History for KRWL - January, 2013

Change the Weather History Date:

Saturday, January 12, 2013

  Actual Average Record
Temperature  
Mean Temperature -1 °F 22 °F  
Max Temperature 7 °F 31 °F 50 °F (1999)
Min Temperature -10 °F 12 °F -32 °F (1963)
Degree Days  
Heating Degree Days 66 43  
Month to date heating degree days 602 516  
Since 1 July heating degree days 3553 3970  
Cooling Degree Days 0 0  
Month to date cooling degree days 0 0  
Year to date cooling degree days 0 0  
Moisture  
Dew Point -8 °F    
Average Humidity 73    
Maximum Humidity 82    
Minimum Humidity 63    
Precipitation  
Precipitation 0.00 in 0.01 in 0.23 in (1980)
Month to date precipitation T 0.15  
Year to date precipitation T 0.15  
Sea Level Pressure  
Sea Level Pressure 30.06 in    
Wind  
Wind Speed 4 mph (WNW)    
Max Wind Speed 14 mph    
Max Gust Speed 16 mph    
Visibility 10 miles    
Events      
T = Trace of Precipitation, MM = Missing Value Source: NWS Daily Summary

Daily Weather History Graph

Daily Weather History Graph

Search for Another Location

Airport or City:

Trip Planner

Search our weather history database for the weather conditions in past years. The results will help you decide how hot, cold, wet, or windy it might be!

Date:

Astronomy

Jan. 12, 2013 Rise Set
Actual Time 7:34 AM MST 5:00 PM MST
Civil Twilight 7:03 AM MST 5:30 PM MST
Nautical Twilight 6:29 AM MST 6:05 PM MST
Astronomical Twilight 5:56 AM MST 6:38 PM MST
Moon 7:54 AM MST (1/12) 6:34 PM MST (1/12)
Length of Visible Light 10h 27m
Length of Day
9h 25m
New Moon, 1% of the Moon is Illuminated
Jan 12
New Moon
Jan 18
First Quarter
Jan 26
Full
Feb 3
Last Quarter
Feb 10
New

Hourly Weather History & Observations

Time (MST) Temp. Windchill Dew Point Humidity Pressure Visibility Wind Dir Wind Speed Gust Speed Precip Events Conditions
12:53 AM -2.9 °F -11.2 °F -8.0 °F 79% 30.06 in 10.0 mi WSW 3.5 mph - N/A   Mostly Cloudy
1:53 AM -6.0 °F - -11.0 °F 79% 30.09 in 10.0 mi Calm Calm - N/A   Clear
2:53 AM -6.0 °F - -11.0 °F 79% 30.09 in 10.0 mi Calm Calm - N/A   Clear
3:53 AM -6.0 °F -18.6 °F -11.0 °F 79% 30.09 in 10.0 mi NNW 5.8 mph - N/A   Mostly Cloudy
4:53 AM -2.9 °F -17.7 °F -9.0 °F 75% 30.08 in 10.0 mi NW 8.1 mph - N/A   Overcast
5:53 AM -6.0 °F -16.9 °F -11.0 °F 79% 30.12 in 10.0 mi WNW 4.6 mph - N/A   Mostly Cloudy
6:53 AM -8.0 °F - -13.0 °F 79% 29.70 in 10.0 mi Calm Calm - N/A   Mostly Cloudy
7:53 AM -5.1 °F -20.4 °F -9.9 °F 80% 29.72 in 10.0 mi North 8.1 mph - N/A   Overcast
8:53 AM -2.0 °F - -8.0 °F 76% 30.18 in 10.0 mi Calm Calm - N/A   Overcast
9:53 AM -0.9 °F - -7.1 °F 75% 30.18 in 8.0 mi Calm Calm - N/A   Overcast
10:53 AM 1.9 °F - -5.1 °F 72% 30.17 in 10.0 mi Calm Calm - N/A   Mostly Cloudy
11:53 AM 5.0 °F -5.6 °F -5.1 °F 63% 30.14 in 10.0 mi West 5.8 mph - N/A   Overcast
12:53 PM 6.1 °F -8.7 °F -2.9 °F 67% 30.13 in 10.0 mi SW 10.4 mph - N/A   Overcast
1:53 PM 6.1 °F -10.2 °F -2.9 °F 67% 30.15 in 10.0 mi SW 12.7 mph - N/A   Overcast
2:53 PM 6.1 °F -7.8 °F -4.0 °F 63% 30.16 in 10.0 mi WSW 9.2 mph - N/A   Overcast
3:53 PM 5.0 °F -9.1 °F -4.0 °F 66% 29.71 in 10.0 mi West 9.2 mph - N/A   Scattered Clouds
4:53 PM 3.0 °F -8.0 °F -5.1 °F 69% 30.16 in 10.0 mi NW 5.8 mph - N/A   Overcast
5:53 PM 1.0 °F -10.3 °F -6.0 °F 72% 30.21 in 10.0 mi NW 5.8 mph - N/A   Overcast
6:53 PM -0.9 °F -15.3 °F -7.1 °F 75% 30.23 in 10.0 mi WNW 8.1 mph - N/A   Partly Cloudy
7:53 PM -5.1 °F - -9.9 °F 80% 30.23 in 10.0 mi Calm Calm - N/A   Partly Cloudy
8:53 PM -2.9 °F -11.2 °F -8.0 °F 79% 30.22 in 10.0 mi SW 3.5 mph - N/A   Overcast
9:53 PM -4.0 °F - -9.0 °F 79% 30.22 in 10.0 mi Calm Calm - N/A   Overcast
10:53 PM -4.0 °F - -9.0 °F 79% 29.73 in 10.0 mi Calm Calm - N/A   Overcast
11:53 PM -6.0 °F - -11.0 °F 79% 29.74 in 9.0 mi Calm Calm - N/A   Overcast